Weather History for KEZS - October, 2013

Change the Weather History Date:

Saturday, October 5, 2013

  Actual Average (KGRB) Record (KGRB)
Temperature  
Mean Temperature 60 °F 51 °F  
Max Temperature 64 °F 61 °F 86 °F (2007)
Min Temperature 58 °F 41 °F 21 °F (1952)
Degree Days  
Heating Degree Days 4 14  
Month to date heating degree days 67  
Since 1 July heating degree days 337  
Cooling Degree Days 0 0  
Month to date cooling degree days 0  
Year to date cooling degree days 395  
Growing Degree Days 10 (Base 50)    
Moisture  
Dew Point 59 °F    
Average Humidity 94    
Maximum Humidity 96    
Minimum Humidity 92    
Precipitation  
Precipitation 1.24 in 0.09 in 1.08 in (1978)
Month to date precipitation 0.43  
Year to date precipitation 23.87  
Snow  
Snow 0.00 in 0.00 in T in (1935)
Month to date snowfall 0.0  
Since 1 July snowfall 0.0  
Since 1 September snowfall 0.0  
Snow Depth -    
Sea Level Pressure  
Sea Level Pressure 29.89 in    
Wind  
Wind Speed 11 mph (ENE)    
Max Wind Speed 16 mph    
Max Gust Speed 23 mph    
Visibility 5 miles    
Events Fog , Rain , Thunderstorm    
T = Trace of Precipitation, MM = Missing Value Source: NWS Daily Summary

Daily Weather History Graph

Daily Weather History Graph

Search for Another Location

Airport or City:

Trip Planner

Search our weather history database for the weather conditions in past years. The results will help you decide how hot, cold, wet, or windy it might be!

Date:

Astronomy

Oct. 05, 2013 Rise Set
Actual Time 6:57 AM CDT 6:26 PM CDT
Civil Twilight 6:28 AM CDT 6:56 PM CDT
Nautical Twilight 5:54 AM CDT 7:29 PM CDT
Astronomical Twilight 5:20 AM CDT 8:04 PM CDT
Moon 7:39 AM CDT 6:41 PM CDT
Length of Visible Light 12h 27m
Length of Day
11h 29m
New Moon, 1% of the Moon is Illuminated
Oct 5
New Moon
Oct 11
First Quarter
Oct 18
Full
Oct 26
Last Quarter
Nov 3
New

Hourly Weather History & Observations

Time (CDT) Temp. Dew Point Humidity Pressure Visibility Wind Dir Wind Speed Gust Speed Precip Events Conditions
12:15 AM 58.3 °F 56.7 °F 94% 30.02 in 1.5 mi NE 11.5 mph 17.3 mph N/A Thunderstorm Overcast
12:35 AM 58.5 °F 56.8 °F 94% 30.01 in 1.8 mi ENE 13.8 mph - N/A Thunderstorm Overcast
12:55 AM 58.5 °F 57.0 °F 95% 30.00 in 1.8 mi ENE 13.8 mph 19.6 mph N/A Rain , Thunderstorm Light Thunderstorms and Rain
1:15 AM 58.3 °F 56.7 °F 94% 30.01 in 1.5 mi East 15.0 mph - 0.04 in Rain , Thunderstorm Thunderstorms and Rain
1:35 AM 58.5 °F 56.8 °F 94% 30.00 in 1.2 mi ENE 15.0 mph - 0.36 in Rain , Thunderstorm Thunderstorms and Rain
1:55 AM 58.5 °F 56.8 °F 94% 29.99 in 1.8 mi ENE 15.0 mph 18.4 mph 0.40 in Rain , Thunderstorm Light Thunderstorms and Rain
2:15 AM 58.6 °F 56.8 °F 94% 30.01 in 1.8 mi ENE 8.1 mph 21.9 mph N/A Rain , Thunderstorm Light Thunderstorms and Rain
2:35 AM 58.6 °F 56.8 °F 94% 30.00 in 1.2 mi NE 10.4 mph - 0.16 in Rain , Thunderstorm Heavy Thunderstorms and Rain
2:55 AM 59.0 °F 57.2 °F 94% 29.97 in 1.8 mi NE 12.7 mph 19.6 mph 0.20 in Rain Rain
3:15 AM 58.1 °F 56.3 °F 94% 29.99 in 2.5 mi NE 10.4 mph 21.9 mph 0.14 in Rain , Thunderstorm Heavy Thunderstorms and Rain
3:35 AM 58.6 °F 56.7 °F 93% 29.98 in 2.0 mi ENE 12.7 mph - 0.16 in Rain , Thunderstorm Light Thunderstorms and Rain
3:55 AM 59.0 °F 56.8 °F 93% 29.98 in 7.0 mi ENE 11.5 mph - 0.16 in Rain , Thunderstorm Light Thunderstorms and Rain
4:15 AM 59.0 °F 57.2 °F 94% 29.99 in 3.0 mi NE 11.5 mph - 0.02 in Rain Light Rain
4:35 AM 58.6 °F 56.5 °F 93% 30.01 in 10.0 mi North 8.1 mph - 0.04 in Rain , Thunderstorm Heavy Thunderstorms and Rain
4:55 AM 59.0 °F 56.8 °F 93% 29.99 in 2.0 mi ENE 13.8 mph 17.3 mph 0.12 in Rain , Thunderstorm Rain
5:15 AM 59.0 °F 57.2 °F 94% 29.99 in 1.8 mi NE 9.2 mph - 0.10 in Rain , Thunderstorm Thunderstorms and Rain
5:35 AM 59.0 °F 57.2 °F 94% 30.00 in 3.0 mi NE 9.2 mph - 0.10 in Rain Light Rain
5:55 AM 59.2 °F 57.2 °F 93% 29.98 in 1.8 mi East 13.8 mph 17.3 mph 0.12 in Rain Light Rain
6:15 AM 59.0 °F 56.8 °F 93% 29.95 in 2.5 mi East 16.1 mph - 0.02 in Rain Light Rain
6:35 AM 59.0 °F 56.8 °F 93% 29.94 in 4.0 mi East 13.8 mph 19.6 mph 0.02 in Rain Light Rain
6:55 AM 59.2 °F 57.2 °F 93% 29.96 in 5.0 mi East 9.2 mph 16.1 mph 0.02 in   Overcast
7:15 AM 59.5 °F 57.4 °F 93% 29.96 in 3.0 mi ENE 13.8 mph - N/A   Overcast
7:35 AM 59.5 °F 57.4 °F 93% 29.91 in 7.0 mi ENE 16.1 mph 23.0 mph N/A   Overcast
7:55 AM 59.9 °F 57.7 °F 93% 29.93 in 7.0 mi East 11.5 mph - N/A   Overcast
8:15 AM 59.7 °F 57.7 °F 93% 29.93 in 3.0 mi ESE 10.4 mph 18.4 mph N/A   Overcast
8:35 AM 59.9 °F 58.1 °F 94% 29.92 in 4.0 mi East 11.5 mph 18.4 mph N/A   Overcast
8:55 AM 60.3 °F 58.5 °F 94% 29.92 in 5.0 mi East 10.4 mph - N/A   Overcast
9:15 AM 60.3 °F 58.6 °F 94% 29.94 in 2.5 mi ESE 6.9 mph - N/A   Overcast
9:35 AM 60.6 °F 59.0 °F 94% 29.95 in 2.5 mi SE 6.9 mph - N/A   Overcast
9:55 AM 60.8 °F 59.0 °F 94% 29.92 in 4.0 mi East 10.4 mph - N/A Rain Light Rain
10:15 AM 60.8 °F 59.2 °F 94% 29.91 in 7.0 mi East 9.2 mph - N/A   Overcast
10:35 AM 61.0 °F 59.4 °F 94% 29.93 in 3.0 mi East 8.1 mph - N/A   Overcast
10:55 AM 61.2 °F 59.5 °F 94% 29.92 in 7.0 mi East 8.1 mph - N/A   Overcast
11:15 AM 61.5 °F 59.9 °F 94% 29.92 in 3.0 mi ENE 8.1 mph - N/A   Overcast
11:35 AM 61.7 °F 59.9 °F 94% 29.92 in 2.5 mi ENE 8.1 mph - N/A   Overcast
11:55 AM 61.9 °F 60.3 °F 94% 29.92 in 2.5 mi East 5.8 mph - N/A   Overcast
12:15 PM 62.1 °F 60.4 °F 94% 29.91 in 2.0 mi East 6.9 mph - N/A   Overcast
12:35 PM 62.1 °F 60.8 °F 96% 29.92 in 1.5 mi East 3.5 mph - 0.06 in Rain , Thunderstorm Thunderstorms and Rain
12:55 PM 62.1 °F 60.8 °F 96% 29.91 in 3.0 mi ENE 6.9 mph - 0.18 in Rain , Thunderstorm Rain
1:15 PM 62.4 °F 60.8 °F 94% 29.89 in 10.0 mi ENE 9.2 mph - N/A Rain , Thunderstorm Light Thunderstorms and Rain
1:35 PM 62.6 °F 61.0 °F 94% 29.89 in 10.0 mi NE 6.9 mph - N/A   Overcast
1:55 PM 62.2 °F 60.8 °F 95% 29.88 in 10.0 mi NE 8.1 mph - N/A   Overcast
2:15 PM 62.4 °F 60.6 °F 94% 29.88 in 10.0 mi NE 6.9 mph - N/A   Overcast
2:35 PM 62.2 °F 60.1 °F 93% 29.88 in 10.0 mi NE 8.1 mph - N/A   Overcast
2:55 PM 62.1 °F 59.9 °F 93% 29.87 in 10.0 mi NE 10.4 mph - N/A   Overcast
3:15 PM 62.1 °F 59.9 °F 93% 29.85 in 10.0 mi ENE 10.4 mph - N/A   Overcast
3:35 PM 62.1 °F 59.9 °F 93% 29.85 in 10.0 mi ENE 10.4 mph - N/A   Overcast
3:55 PM 62.1 °F 59.9 °F 93% 29.86 in 10.0 mi East 11.5 mph - N/A   Overcast
4:15 PM 61.9 °F 59.5 °F 92% 29.85 in 10.0 mi East 13.8 mph - N/A   Overcast
4:35 PM 61.7 °F 59.5 °F 93% 29.85 in 10.0 mi ENE 8.1 mph - N/A   Overcast
4:55 PM 61.7 °F 59.7 °F 93% 29.84 in 10.0 mi ENE 10.4 mph 16.1 mph N/A   Overcast
5:15 PM 61.7 °F 59.7 °F 93% 29.84 in 10.0 mi East 9.2 mph - N/A   Overcast
5:35 PM 61.3 °F 59.0 °F 92% 29.84 in 10.0 mi East 13.8 mph - N/A   Overcast
5:55 PM 61.2 °F 59.0 °F 93% 29.83 in 10.0 mi ENE 10.4 mph 17.3 mph N/A   Overcast
6:15 PM 61.0 °F 58.6 °F 92% 29.83 in 10.0 mi ENE 10.4 mph 16.1 mph N/A   Overcast
6:35 PM 60.8 °F 58.5 °F 92% 29.82 in 10.0 mi ENE 8.1 mph - N/A   Overcast
6:55 PM 60.8 °F 58.5 °F 92% 29.83 in 10.0 mi ENE 8.1 mph - N/A   Overcast
7:15 PM 60.8 °F 58.6 °F 93% 29.83 in 10.0 mi ENE 8.1 mph - N/A   Overcast
7:35 PM 60.6 °F 58.8 °F 94% 29.80 in 5.0 mi ENE 9.2 mph - N/A   Overcast
7:55 PM 60.4 °F 59.0 °F 95% 29.80 in 1.5 mi ENE 10.4 mph - N/A   Overcast
8:15 PM 60.3 °F 58.8 °F 95% 29.79 in 0.8 mi ENE 10.4 mph - N/A   Overcast
8:35 PM 60.4 °F 59.0 °F 95% 29.79 in 0.5 mi ENE 8.1 mph - N/A Rain Rain
8:55 PM 60.8 °F 59.2 °F 94% 29.78 in 3.0 mi ENE 11.5 mph - N/A Rain Light Rain
9:15 PM 60.8 °F 59.2 °F 94% 29.77 in 2.0 mi ENE 8.1 mph - N/A   Overcast
9:35 PM 61.0 °F 59.5 °F 95% 29.77 in 0.2 mi East 8.1 mph - N/A Fog Fog
9:55 PM 61.2 °F 59.9 °F 96% 29.76 in 0.2 mi ENE 6.9 mph - N/A Fog Fog
10:15 PM 61.3 °F 59.9 °F 95% 29.75 in 0.2 mi ENE 8.1 mph - N/A Rain Light Rain
10:35 PM 61.7 °F 60.4 °F 96% 29.73 in 0.2 mi ENE 8.1 mph - N/A Fog Fog
10:55 PM 62.4 °F 61.0 °F 95% 29.71 in 0.5 mi ENE 9.2 mph - N/A Fog Fog
11:15 PM 62.6 °F 61.3 °F 96% 29.71 in 0.5 mi East 5.8 mph - N/A Fog Fog
11:35 PM 63.1 °F 61.7 °F 95% 29.71 in 2.0 mi East 5.8 mph - N/A Rain Light Rain
11:55 PM 63.7 °F 62.4 °F 96% 29.71 in 3.0 mi ESE 4.6 mph - 0.04 in   Drizzle